Location: Downe
(51.3167°N, 0.0500°E)
Time: 14:17:55
(UTC+00:00)

RESURS DK-1 - Pass Details

Date: 17 November 2019
Orbit: 556 x 562 km, 69.9° (Epoch: 13 December)

Event Time Altitude Azimuth Distance (km) Brightness Sun altitude
Exits shadow 06:19:40 - 334° (NNW) 2,391 5.2 -9.4°
Reaches altitude 10° 06:21:04 10° 340° (NNW) 1,858 4.6 -9.2°
Maximum altitude 06:24:58 38° 50° (NE) 866 3.6 -8.6°
Drops below altitude 10° 06:28:51 10° 119° (ESE) 1,850 6.7 -8.0°
Sets 06:31:10 0° 128° (SE) 2,743 7.6 -7.7°
